Rome Fiumicino, Italy

9:31 AM CEST on October 22, 2017 (GMT +0200)
Fiumicino

Weather History for LIRF - October, 2012

Change the Weather History Date:

Sunday, October 28, 2012

  Actual Average Record
Temperature  
Mean Temperature 58 °F -  
Max Temperature 64 °F 64 °F 77 °F (1999)
Min Temperature 51 °F 47 °F 44 °F (1996)
Degree Days  
Heating Degree Days 8    
Growing Degree Days 8 (Base 50)    
Moisture  
Dew Point 43 °F    
Average Humidity 59    
Maximum Humidity 73    
Minimum Humidity 44    
Precipitation  
Precipitation 0.00 in 0.14 in - ()
Sea Level Pressure  
Sea Level Pressure 29.52 in    
Wind  
Wind Speed 19 mph ()    
Max Wind Speed 31 mph    
Max Gust Speed 47 mph    
Visibility 5.8 miles    
Events Rain    
Averages and records for this station are not official NWS values.
T = Trace of Precipitation, MM = Missing Value Source: Averaged Metar Reports

Daily Weather History Graph

Daily Weather History Graph

Search for Another Location

Airport or City:

Trip Planner

Search our weather history database for the weather conditions in past years. The results will help you decide how hot, cold, wet, or windy it might be!

Date:

Astronomy

Oct. 28, 2012 Rise Set
Actual Time 6:38 AM CET 5:10 PM CET
Civil Twilight 6:10 AM CET 5:38 PM CET
Nautical Twilight 5:37 AM CET 6:11 PM CET
Astronomical Twilight 5:05 AM CET 6:43 PM CET
Moon 4:19 PM CET (10/28) 5:14 AM CET (10/28)
Length of Visible Light 11h 28m
Length of Day
10h 31m
Waxing Gibbous, 98% of the Moon is Illuminated
Oct 28
Waxing Gibbous
Oct 29
Full
Nov 7
Last Quarter
Nov 13
New
Nov 20
First Quarter

Hourly Weather History & Observations

Time (CET) Temp. Dew Point Humidity Pressure Visibility Wind Dir Wind Speed Gust Speed Precip Events Conditions
12:20 AM 64.4 °F 53.6 °F 68% 29.33 in 6.2 mi WSW 18.4 mph - N/A   Partly Cloudy
12:50 AM 64.4 °F 55.4 °F 73% 29.33 in 6.2 mi WSW 19.6 mph - N/A   Partly Cloudy
1:20 AM 64.4 °F 53.6 °F 68% 29.33 in 6.2 mi WSW 24.2 mph - N/A   Partly Cloudy
1:50 AM 62.6 °F 51.8 °F 68% 29.36 in 5.6 mi West 21.9 mph 33.4 mph N/A   Scattered Clouds
2:20 AM 60.8 °F 50.0 °F 68% 29.36 in 5.6 mi WSW 21.9 mph - N/A   Scattered Clouds
2:50 AM 60.8 °F 50.0 °F 68% 29.39 in 5.6 mi WSW 23.0 mph - N/A   Scattered Clouds
2:20 AM 60.8 °F 50.0 °F 68% 29.39 in 5.6 mi WSW 20.7 mph - N/A   Mostly Cloudy
2:50 AM 60.8 °F 50.0 °F 68% 29.39 in 5.0 mi WSW 16.1 mph - N/A   Scattered Clouds
3:20 AM 60.8 °F 50.0 °F 68% 29.39 in 5.0 mi WSW 17.3 mph - N/A   Scattered Clouds
3:50 AM 60.8 °F 50.0 °F 68% 29.39 in 5.0 mi WSW 20.7 mph - N/A   Partly Cloudy
4:20 AM 59.0 °F 48.2 °F 67% 29.42 in 5.0 mi WSW 23.0 mph 34.5 mph N/A   Unknown
4:50 AM 59.0 °F 44.6 °F 59% 29.42 in 5.0 mi WSW 21.9 mph - N/A   Unknown
5:20 AM 59.0 °F 44.6 °F 59% 29.44 in 5.6 mi WSW 24.2 mph - N/A   Unknown
5:50 AM 59.0 °F 46.4 °F 63% 29.44 in 5.6 mi WSW 25.3 mph - N/A   Unknown
6:20 AM 57.2 °F 44.6 °F 63% 29.47 in 6.2 mi WSW 23.0 mph - N/A   Partly Cloudy
6:50 AM 57.2 °F 44.6 °F 63% 29.47 in 5.0 mi WSW 21.9 mph - N/A   Scattered Clouds
7:20 AM 57.2 °F 44.6 °F 63% 29.50 in 5.0 mi WSW 21.9 mph - N/A   Scattered Clouds
7:50 AM 57.2 °F 42.8 °F 59% 29.50 in 5.0 mi WSW 20.7 mph 34.5 mph N/A   Partly Cloudy
8:20 AM 57.2 °F 41.0 °F 55% 29.53 in 5.0 mi WSW 26.5 mph - N/A   Partly Cloudy
8:50 AM 57.2 °F 41.0 °F 55% 29.53 in 5.0 mi WSW 23.0 mph - N/A   Scattered Clouds
9:20 AM 57.2 °F 42.8 °F 59% 29.56 in 5.0 mi WSW 17.3 mph - N/A   Scattered Clouds
9:50 AM 59.0 °F 41.0 °F 51% 29.56 in 6.2 mi WSW 18.4 mph - N/A   Scattered Clouds
10:20 AM 57.2 °F 42.8 °F 59% 29.56 in 6.2 mi WSW 19.6 mph - N/A   Scattered Clouds
10:50 AM 57.2 °F 42.8 °F 59% 29.59 in 6.2 mi WSW 19.6 mph - N/A   Scattered Clouds
11:20 AM 59.0 °F 39.2 °F 48% 29.59 in 6.2 mi WSW 19.6 mph 31.1 mph N/A   Scattered Clouds
11:50 AM 57.2 °F 37.4 °F 48% 29.59 in 6.2 mi WSW 21.9 mph - N/A   Mostly Cloudy
12:20 PM 59.0 °F 37.4 °F 45% 29.56 in 6.2 mi WSW 20.7 mph - N/A   Scattered Clouds
12:50 PM 55.4 °F 41.0 °F 58% 29.59 in 6.2 mi WSW 19.6 mph 32.2 mph N/A   Scattered Clouds
1:20 PM 57.2 °F 39.2 °F 51% 29.59 in 6.2 mi WSW 20.7 mph - N/A Rain Light Rain Showers
1:50 PM 55.4 °F 39.2 °F 54% 29.56 in 6.2 mi WSW 19.6 mph 31.1 mph N/A   Scattered Clouds
2:20 PM 57.2 °F 42.8 °F 59% 29.56 in 6.2 mi SW 15.0 mph - N/A   Scattered Clouds
2:50 PM 57.2 °F 41.0 °F 55% 29.56 in 6.2 mi SW 20.7 mph - N/A   Scattered Clouds
3:20 PM 57.2 °F 39.2 °F 51% 29.59 in 6.2 mi WSW 21.9 mph 33.4 mph N/A   Scattered Clouds
3:50 PM 57.2 °F 39.2 °F 51% 29.59 in 6.2 mi WSW 20.7 mph - N/A   Mostly Cloudy
4:20 PM 57.2 °F 39.2 °F 51% 29.59 in 6.2 mi SW 20.7 mph - N/A   Scattered Clouds
4:50 PM 55.4 °F 35.6 °F 47% 29.59 in 6.2 mi SW 23.0 mph - N/A   Scattered Clouds
5:20 PM 55.4 °F 35.6 °F 47% 29.59 in 6.2 mi SW 20.7 mph - N/A Rain Light Rain
5:50 PM 57.2 °F 35.6 °F 44% 29.59 in 6.2 mi SSW 21.9 mph - N/A   Mostly Cloudy
6:20 PM 53.6 °F 41.0 °F 62% 29.59 in 6.2 mi SSW 21.9 mph 38.0 mph N/A Rain Light Rain
6:50 PM 53.6 °F 39.2 °F 58% 29.59 in 6.2 mi SW 24.2 mph 35.7 mph N/A Rain Light Rain
7:20 PM 53.6 °F 39.2 °F 58% 29.59 in 6.2 mi SW 23.0 mph 34.5 mph N/A   Scattered Clouds
7:50 PM 53.6 °F 37.4 °F 54% 29.59 in 6.2 mi SW 24.2 mph - N/A   Mostly Cloudy
8:20 PM 55.4 °F 37.4 °F 51% 29.59 in 6.2 mi SW 20.7 mph - N/A   Scattered Clouds
8:50 PM 55.4 °F 39.2 °F 54% 29.59 in 6.2 mi SW 24.2 mph - N/A   Scattered Clouds
9:20 PM 53.6 °F 39.2 °F 58% 29.59 in 6.2 mi SW 25.3 mph - N/A   Scattered Clouds
9:50 PM 51.8 °F 41.0 °F 67% 29.62 in 3.7 mi SW 31.1 mph 47.2 mph N/A Rain Rain Showers
10:20 PM 51.8 °F 42.8 °F 71% 29.62 in 6.2 mi WSW 17.3 mph - N/A Rain Light Rain
10:50 PM 53.6 °F 41.0 °F 62% 29.59 in 6.2 mi SW 20.7 mph 33.4 mph N/A   Scattered Clouds